AIZ112 LLBG-LLER

Flight info

Callsign AIZ112
Flight time 0h 45m
Altitude 24000
Route TOMAL J10 NURIT
Aircraft A320/M-V/N

Departure

Time 2026-04-21 16:37
Airport Ben Gurion International Airport (LLBG)

Arrival

Time 2026-04-21 17:23
Airport Ramon International Airport (LLER)
Time Latitude Longitude Altitude Speed Heading
2026-04-21 16:05 32.00003 34.87718 120 ft 0 kts 121°
2026-04-21 16:30 32.00001 34.87721 120 ft 1 kts 121°
2026-04-21 16:30 32.00001 34.87722 120 ft 0 kts 121°
2026-04-21 16:31 32.00001 34.87723 120 ft 0 kts 115°
2026-04-21 16:31 32.00004 34.87728 120 ft 1 kts 63°
2026-04-21 16:31 32.00026 34.87723 115 ft 6 kts 331°
2026-04-21 16:31 32.00051 34.87671 118 ft 9 kts 300°
2026-04-21 16:32 32.00096 34.87673 120 ft 8 kts 16°
2026-04-21 16:32 32.00156 34.87710 117 ft 13 kts 33°
2026-04-21 16:32 32.00254 34.87779 116 ft 19 kts 31°
2026-04-21 16:32 32.00378 34.87868 119 ft 22 kts 32°
2026-04-21 16:33 32.00515 34.87957 119 ft 20 kts 10°
2026-04-21 16:33 32.00580 34.87907 118 ft 3 kts 16°
2026-04-21 16:33 32.00610 34.87931 117 ft 8 kts 33°
2026-04-21 16:33 32.00679 34.87984 117 ft 16 kts 33°
2026-04-21 16:34 32.00792 34.88063 120 ft 21 kts 31°
2026-04-21 16:34 32.00923 34.88162 119 ft 23 kts 32°
2026-04-21 16:34 32.01064 34.88263 117 ft 24 kts 30°
2026-04-21 16:34 32.01211 34.88369 119 ft 25 kts 32°
2026-04-21 16:35 32.01345 34.88501 117 ft 26 kts 47°
2026-04-21 16:35 32.01449 34.88680 118 ft 27 kts 65°
2026-04-21 16:35 32.01505 34.88895 117 ft 28 kts 79°
2026-04-21 16:35 32.01540 34.89122 119 ft 27 kts 79°
2026-04-21 16:36 32.01602 34.89268 117 ft 19 kts
2026-04-21 16:36 32.01734 34.89241 117 ft 19 kts 340°
2026-04-21 16:36 32.01750 34.89124 118 ft 16 kts 257°
2026-04-21 16:36 32.01712 34.88763 120 ft 79 kts 266°
2026-04-21 16:37 32.01569 34.87901 119 ft 134 kts 259°
2026-04-21 16:37 32.01358 34.86641 202 ft 169 kts 261°
2026-04-21 16:37 32.01113 34.85302 806 ft 167 kts 260°
2026-04-21 16:37 32.00835 34.83918 1126 ft 183 kts 258°
2026-04-21 16:38 32.00521 34.82383 1486 ft 201 kts 258°
2026-04-21 16:38 32.00174 34.80683 1809 ft 224 kts 258°
2026-04-21 16:38 31.99929 34.79464 2122 ft 235 kts 258°
2026-04-21 16:38 31.99547 34.77566 2849 ft 241 kts 258°
2026-04-21 16:39 31.99270 34.75607 3768 ft 244 kts 270°
2026-04-21 16:39 31.99709 34.73016 5101 ft 247 kts 291°
2026-04-21 16:39 32.00123 34.71733 5786 ft 248 kts 291°
2026-04-21 16:39 32.00735 34.69811 6763 ft 253 kts 290°
2026-04-21 16:40 32.01359 34.67825 7518 ft 258 kts 290°
2026-04-21 16:40 32.01980 34.65829 7845 ft 259 kts 290°
2026-04-21 16:40 32.02603 34.63825 7979 ft 261 kts 290°
2026-04-21 16:40 32.03109 34.61749 8006 ft 260 kts 279°
2026-04-21 16:41 32.03254 34.59604 8004 ft 261 kts 273°
2026-04-21 16:41 32.03291 34.57425 8004 ft 261 kts 272°
2026-04-21 16:41 32.03335 34.55288 8007 ft 261 kts 273°
2026-04-21 16:41 32.03411 34.53146 8006 ft 261 kts 274°
2026-04-21 16:42 32.03513 34.51016 8004 ft 261 kts 274°
2026-04-21 16:42 32.03630 34.48880 8015 ft 261 kts 275°
2026-04-21 16:42 32.03753 34.46747 8011 ft 261 kts 275°
2026-04-21 16:42 32.03880 34.44590 8018 ft 261 kts 275°
2026-04-21 16:43 32.04006 34.42448 8016 ft 262 kts 275°
2026-04-21 16:43 32.04360 34.40342 8010 ft 259 kts 294°
2026-04-21 16:43 32.05389 34.38594 8007 ft 262 kts 317°
2026-04-21 16:43 32.06956 34.37526 8013 ft 264 kts 342°
2026-04-21 16:44 32.08786 34.37357 8006 ft 267 kts
2026-04-21 16:44 32.10525 34.38158 8008 ft 274 kts 33°
2026-04-21 16:44 32.11809 34.39818 8012 ft 278 kts 60°
2026-04-21 16:44 32.12332 34.42027 8012 ft 282 kts 88°
2026-04-21 16:45 32.11964 34.44286 8016 ft 283 kts 112°
2026-04-21 16:45 32.11205 34.46441 8008 ft 284 kts 113°
2026-04-21 16:45 32.10436 34.48583 8010 ft 283 kts 113°
2026-04-21 16:45 32.09672 34.50727 8006 ft 284 kts 112°
2026-04-21 16:46 32.08916 34.52871 8006 ft 284 kts 112°
2026-04-21 16:46 32.08161 34.55027 8010 ft 284 kts 112°
2026-04-21 16:46 32.07411 34.57177 8007 ft 284 kts 112°
2026-04-21 16:46 32.06660 34.59329 8012 ft 285 kts 112°
2026-04-21 16:47 32.05918 34.61455 8007 ft 284 kts 112°
2026-04-21 16:47 32.05146 34.63665 7997 ft 285 kts 112°
2026-04-21 16:47 32.04392 34.65820 7997 ft 284 kts 112°
2026-04-21 16:47 32.03638 34.67976 7998 ft 283 kts 112°
2026-04-21 16:48 32.02888 34.70115 7999 ft 283 kts 112°
2026-04-21 16:48 32.02136 34.72260 8008 ft 284 kts 112°
2026-04-21 16:48 32.01377 34.74421 8001 ft 284 kts 112°
2026-04-21 16:48 32.00631 34.76547 7993 ft 284 kts 112°
2026-04-21 16:49 31.99865 34.78727 8002 ft 284 kts 112°
2026-04-21 16:49 31.99103 34.80894 8003 ft 284 kts 112°
2026-04-21 16:49 31.98349 34.83037 7994 ft 284 kts 112°
2026-04-21 16:49 31.97589 34.85193 7992 ft 284 kts 112°
2026-04-21 16:50 31.96832 34.87342 7998 ft 284 kts 112°
2026-04-21 16:50 31.96049 34.89508 8032 ft 291 kts 113°
2026-04-21 16:50 31.95224 34.91740 8464 ft 301 kts 114°
2026-04-21 16:50 31.94390 34.93989 9528 ft 300 kts 113°
2026-04-21 16:51 31.93530 34.96244 10425 ft 307 kts 114°
2026-04-21 16:51 31.92644 34.98632 10804 ft 331 kts 117°
2026-04-21 16:51 31.91326 35.00965 11127 ft 353 kts 127°
2026-04-21 16:51 31.89845 35.03313 11846 ft 360 kts 128°
2026-04-21 16:52 31.88322 35.05680 12693 ft 365 kts 128°
2026-04-21 16:52 31.86763 35.08083 13514 ft 371 kts 128°
2026-04-21 16:52 31.85722 35.09683 14033 ft 374 kts 128°
2026-04-21 16:52 31.83586 35.12962 15014 ft 381 kts 129°
2026-04-21 16:53 31.81962 35.15456 15729 ft 386 kts 129°
2026-04-21 16:53 31.80318 35.17980 16406 ft 391 kts 129°
2026-04-21 16:53 31.78650 35.20540 17081 ft 397 kts 129°
2026-04-21 16:53 31.76962 35.23129 17759 ft 402 kts 129°
2026-04-21 16:54 31.75243 35.25765 18404 ft 408 kts 130°
2026-04-21 16:54 31.73507 35.28423 19007 ft 411 kts 130°
2026-04-21 16:54 31.71759 35.31096 19629 ft 414 kts 130°
2026-04-21 16:54 31.69990 35.33799 20239 ft 418 kts 130°
2026-04-21 16:55 31.68204 35.36525 20792 ft 424 kts 130°
2026-04-21 16:55 31.67011 35.38345 21210 ft 426 kts 131°
2026-04-21 16:55 31.64402 35.41842 21969 ft 423 kts 144°
2026-04-21 16:55 31.61951 35.43704 22511 ft 418 kts 160°
2026-04-21 16:56 31.60122 35.44494 22897 ft 413 kts 171°
2026-04-21 16:56 31.57302 35.44927 23495 ft 405 kts 186°
2026-04-21 16:56 31.54531 35.44541 23875 ft 400 kts 197°
2026-04-21 16:56 31.51832 35.43774 23999 ft 398 kts 200°
2026-04-21 16:57 31.49173 35.42975 24032 ft 399 kts 199°
2026-04-21 16:57 31.46447 35.42224 24033 ft 400 kts 198°
2026-04-21 16:57 31.43689 35.41538 24034 ft 400 kts 197°
2026-04-21 16:57 31.40919 35.40895 24035 ft 400 kts 197°
2026-04-21 16:58 31.38211 35.40287 24033 ft 400 kts 196°
2026-04-21 16:58 31.35478 35.39681 24029 ft 400 kts 196°
2026-04-21 16:58 31.32877 35.39148 24032 ft 402 kts 193°
2026-04-21 16:58 31.30077 35.38835 24027 ft 403 kts 191°
2026-04-21 16:59 31.27285 35.38549 24030 ft 402 kts 191°
2026-04-21 16:59 31.24498 35.38259 24027 ft 402 kts 191°
2026-04-21 16:59 31.21710 35.37967 24024 ft 402 kts 191°
2026-04-21 16:59 31.18922 35.37674 24024 ft 401 kts 191°
2026-04-21 17:00 31.16144 35.37382 24024 ft 401 kts 191°
2026-04-21 17:00 31.13363 35.37092 24022 ft 400 kts 191°
2026-04-21 17:00 31.11522 35.36902 24022 ft 400 kts 191°
2026-04-21 17:00 31.07813 35.36520 24022 ft 400 kts 191°
2026-04-21 17:01 31.05034 35.36235 24023 ft 400 kts 191°
2026-04-21 17:01 31.02299 35.35954 24022 ft 399 kts 191°
2026-04-21 17:01 30.99521 35.35668 24021 ft 400 kts 191°
2026-04-21 17:01 30.96754 35.35348 24019 ft 397 kts 194°
2026-04-21 17:02 30.94064 35.34716 24021 ft 393 kts 200°
2026-04-21 17:02 30.91484 35.33728 24022 ft 388 kts 207°
2026-04-21 17:02 30.89004 35.32496 24021 ft 387 kts 208°
2026-04-21 17:02 30.86531 35.31264 24018 ft 387 kts 208°
2026-04-21 17:03 30.84048 35.30036 24026 ft 386 kts 208°
2026-04-21 17:03 30.81573 35.28815 24020 ft 387 kts 208°
2026-04-21 17:03 30.79091 35.27593 24020 ft 387 kts 208°
2026-04-21 17:03 30.76614 35.26373 23880 ft 387 kts 208°
2026-04-21 17:04 30.74123 35.25147 23328 ft 390 kts 207°
2026-04-21 17:04 30.71641 35.23925 22601 ft 392 kts 207°
2026-04-21 17:04 30.69147 35.22701 22084 ft 386 kts 207°
2026-04-21 17:04 30.66684 35.21494 21512 ft 382 kts 207°
2026-04-21 17:05 30.64245 35.20298 20921 ft 378 kts 207°
2026-04-21 17:05 30.61833 35.19114 20311 ft 375 kts 207°
2026-04-21 17:05 30.59435 35.17936 19737 ft 372 kts 207°
2026-04-21 17:05 30.57048 35.16796 19154 ft 371 kts 204°
2026-04-21 17:06 30.54569 35.15951 18588 ft 373 kts 197°
2026-04-21 17:06 30.52012 35.15431 17955 ft 373 kts 194°
2026-04-21 17:06 30.49453 35.14947 17379 ft 370 kts 194°
2026-04-21 17:06 30.46921 35.14463 16745 ft 368 kts 194°
2026-04-21 17:07 30.44411 35.13979 16207 ft 364 kts 194°
2026-04-21 17:07 30.41911 35.13495 15569 ft 364 kts 194°
2026-04-21 17:07 30.39420 35.13012 14950 ft 363 kts 194°
2026-04-21 17:07 30.36928 35.12530 14356 ft 362 kts 193°
2026-04-21 17:08 30.34448 35.12052 13810 ft 360 kts 193°
2026-04-21 17:08 30.31981 35.11577 13219 ft 357 kts 193°
2026-04-21 17:08 30.29524 35.11111 12549 ft 357 kts 193°
2026-04-21 17:08 30.27077 35.10654 11946 ft 355 kts 193°
2026-04-21 17:09 30.22222 35.09747 10789 ft 352 kts 192°
2026-04-21 17:09 30.19853 35.09276 10473 ft 342 kts 193°
2026-04-21 17:09 30.17558 35.08799 10337 ft 328 kts 193°
2026-04-21 17:10 30.15353 35.08336 10209 ft 315 kts 193°
2026-04-21 17:10 30.13241 35.07894 10097 ft 302 kts 193°
2026-04-21 17:10 30.11207 35.07470 9843 ft 295 kts 194°
2026-04-21 17:10 30.09197 35.07050 9418 ft 293 kts 194°
2026-04-21 17:11 30.07195 35.06632 8976 ft 291 kts 193°
2026-04-21 17:11 30.05200 35.06235 8551 ft 290 kts 192°
2026-04-21 17:11 30.03206 35.05876 8091 ft 290 kts 191°
2026-04-21 17:11 30.01211 35.05528 7630 ft 290 kts 192°
2026-04-21 17:12 29.99207 35.05173 7156 ft 290 kts 192°
2026-04-21 17:12 29.97445 35.04774 6922 ft 283 kts 195°
2026-04-21 17:12 29.95545 35.04309 6684 ft 279 kts 195°
2026-04-21 17:12 29.93582 35.03818 6436 ft 295 kts 194°
2026-04-21 17:13 29.91591 35.03307 6182 ft 290 kts 195°
2026-04-21 17:13 29.89643 35.02808 5925 ft 283 kts 195°
2026-04-21 17:13 29.87741 35.02318 5670 ft 277 kts 195°
2026-04-21 17:13 29.85879 35.01829 5406 ft 272 kts 197°
2026-04-21 17:14 29.84076 35.01264 5156 ft 267 kts 198°
2026-04-21 17:14 29.82244 35.00679 4908 ft 273 kts 198°
2026-04-21 17:14 29.80380 35.00084 4646 ft 275 kts 197°
2026-04-21 17:14 29.78545 34.99486 4398 ft 273 kts 198°
2026-04-21 17:15 29.76784 34.98920 4148 ft 273 kts 198°
2026-04-21 17:15 29.74939 34.98338 3896 ft 273 kts 197°
2026-04-21 17:15 29.73120 34.97753 3645 ft 267 kts 198°
2026-04-21 17:15 29.71322 34.97178 3404 ft 265 kts 197°
2026-04-21 17:16 29.69582 34.96598 3146 ft 263 kts 198°
2026-04-21 17:16 29.67776 34.95990 3022 ft 272 kts 198°
2026-04-21 17:16 29.65975 34.95392 3025 ft 264 kts 198°
2026-04-21 17:16 29.64206 34.94800 3037 ft 269 kts 197°
2026-04-21 17:17 29.62425 34.94203 3033 ft 264 kts 198°
2026-04-21 17:17 29.60637 34.93621 3031 ft 270 kts 198°
2026-04-21 17:17 29.58835 34.93036 3027 ft 267 kts 198°
2026-04-21 17:17 29.57056 34.92457 3023 ft 265 kts 198°
2026-04-21 17:18 29.55246 34.91873 3023 ft 267 kts 198°
2026-04-21 17:18 29.53448 34.91350 3031 ft 268 kts 186°
2026-04-21 17:18 29.51589 34.91627 3032 ft 273 kts 157°
2026-04-21 17:18 29.50035 34.92843 2883 ft 270 kts 128°
2026-04-21 17:19 29.49176 34.94682 2712 ft 258 kts 99°
2026-04-21 17:19 29.49187 34.96673 2529 ft 251 kts 70°
2026-04-21 17:19 29.50061 34.98389 2354 ft 246 kts 40°
2026-04-21 17:19 29.51525 34.99317 2179 ft 240 kts 12°
2026-04-21 17:20 29.53169 34.99628 2000 ft 239 kts
2026-04-21 17:20 29.54792 34.99901 1922 ft 232 kts
2026-04-21 17:20 29.56428 34.99974 1930 ft 241 kts 358°
2026-04-21 17:20 29.58112 34.99978 1928 ft 241 kts
2026-04-21 17:21 29.59766 35.00114 1926 ft 237 kts
2026-04-21 17:21 29.60835 35.00199 1926 ft 230 kts 359°
2026-04-21 17:21 29.62351 34.99772 1923 ft 216 kts 337°
2026-04-21 17:21 29.63711 34.99086 1737 ft 211 kts 346°
2026-04-21 17:22 29.65144 34.98866 1496 ft 218 kts 360°
2026-04-21 17:22 29.66728 34.99302 1227 ft 239 kts 26°
2026-04-21 17:22 29.68100 35.00387 821 ft 239 kts 33°
2026-04-21 17:22 29.69581 35.00818 716 ft 209 kts 359°
2026-04-21 17:23 29.70917 35.00897 294 ft 0 kts 15°